Terug naar catalogus

DELTA 1 DEB

ActiefSSO
NORAD 9977·DEBRIS·🇺🇸 United States

Gelanceerd Nov 6, 1973 vanaf Vandenberg Space Force Base

Loading…

Volgende Passages (komende 24 uur)

TLE

VersSource: Space-Track

Epoch: Sep 12, 2026, 04:40 UTC

1 09977U 73086GG  26255.19475032  .00000060  00000-0  64940-3 0  9999
2 09977 101.8855 342.5309 0070004  20.2519  11.4148 12.54386802334466

Volg DELTA 1 DEB in realtime met AllMySat

Download on the App Store